Time,TemperatureF,DewpointF,PressureIn,WindDirection,WindDirectionDegrees,WindSpeedMPH,WindSpeedGustMPH,Humidity,HourlyPrecipIn,Conditions,Clouds,dailyrainin,SoftwareType,DateUTC
2013-02-20 00:06:00,9.9,1.2,30.33,NNE,22,2.2,-999.0,67,-99.99,,,0.00,Acu-Link.com,2013-02-20 06:06:00,
2013-02-20 00:31:00,9.3,0.9,30.33,SSE,157,2.7,-999.0,68,-99.99,,,0.00,Acu-Link.com,2013-02-20 06:31:00,
2013-02-20 00:50:00,9.5,1.1,30.34,SSE,157,1.7,-999.0,68,-99.99,,,0.00,Acu-Link.com,2013-02-20 06:50:00,
2013-02-20 01:41:00,9.5,1.1,30.35,NW,315,5.3,-999.0,68,-99.99,,,0.00,Acu-Link.com,2013-02-20 07:41:00,
2013-02-20 03:40:00,7.0,-0.1,30.29,SSW,202,2.2,-999.0,72,-99.99,,,0.00,Acu-Link.com,2013-02-20 09:40:00,
2013-02-20 04:06:00,6.6,-0.2,30.29,ESE,112,4.2,-999.0,73,-99.99,,,0.00,Acu-Link.com,2013-02-20 10:06:00,
2013-02-20 04:21:00,6.6,-0.2,30.29,NE,45,2.7,-999.0,73,-99.99,,,0.00,Acu-Link.com,2013-02-20 10:21:00,
2013-02-20 04:36:00,6.3,-0.5,30.29,NE,45,4.2,-999.0,73,-99.99,,,0.00,Acu-Link.com,2013-02-20 10:36:00,
2013-02-20 04:52:00,6.3,-0.2,30.30,North,0,1.7,-999.0,74,-99.99,,,0.00,Acu-Link.com,2013-02-20 10:52:00,
2013-02-20 05:07:00,5.9,-0.3,30.29,NE,45,1.7,-999.0,75,-99.99,,,0.00,Acu-Link.com,2013-02-20 11:07:00,
2013-02-20 05:25:00,5.9,-0.3,30.27,NNE,22,4.7,-999.0,75,-99.99,,,0.00,Acu-Link.com,2013-02-20 11:25:00,
2013-02-20 05:40:00,5.5,-0.7,30.27,NE,45,2.2,-999.0,75,-99.99,,,0.00,Acu-Link.com,2013-02-20 11:40:00,
2013-02-20 05:55:00,5.4,-0.8,30.26,SE,135,3.2,-999.0,75,-99.99,,,0.00,Acu-Link.com,2013-02-20 11:55:00,
2013-02-20 06:10:00,5.4,-0.8,30.28,WNW,292,0.0,-999.0,75,-99.99,,,0.00,Acu-Link.com,2013-02-20 12:10:00,
2013-02-20 06:26:00,5.4,-0.5,30.28,ENE,67,1.7,-999.0,76,-99.99,,,0.00,Acu-Link.com,2013-02-20 12:26:00,
2013-02-20 06:41:00,5.7,-0.2,30.28,ESE,112,2.7,-999.0,76,-99.99,,,0.00,Acu-Link.com,2013-02-20 12:41:00,
2013-02-20 06:57:00,6.3,-0.2,30.29,SSW,202,2.7,-999.0,74,-99.99,,,0.00,Acu-Link.com,2013-02-20 12:57:00,
2013-02-20 07:12:00,6.6,0.1,30.30,ESE,112,2.7,-999.0,74,-99.99,,,0.00,Acu-Link.com,2013-02-20 13:12:00,
2013-02-20 07:27:00,7.0,0.2,30.30,East,90,1.7,-999.0,73,-99.99,,,0.00,Acu-Link.com,2013-02-20 13:27:00,
2013-02-20 07:42:00,7.3,-0.1,30.31,ESE,112,5.3,-999.0,71,-99.99,,,0.00,Acu-Link.com,2013-02-20 13:42:00,
2013-02-20 07:57:00,8.1,0.7,30.31,SE,135,2.7,-999.0,71,-99.99,,,0.00,Acu-Link.com,2013-02-20 13:57:00,
2013-02-20 08:13:00,8.6,0.5,30.30,ENE,67,4.7,-999.0,69,-99.99,,,0.00,Acu-Link.com,2013-02-20 14:13:00,
2013-02-20 08:28:00,9.5,1.1,30.31,East,90,3.2,-999.0,68,-99.99,,,0.00,Acu-Link.com,2013-02-20 14:28:00,
2013-02-20 08:43:00,11.5,2.1,30.32,SE,135,2.2,-999.0,65,-99.99,,,0.00,Acu-Link.com,2013-02-20 14:43:00,
2013-02-20 08:58:00,11.5,2.1,30.31,SW,225,2.7,-999.0,65,-99.99,,,0.00,Acu-Link.com,2013-02-20 14:58:00,
2013-02-20 09:13:00,12.0,2.2,30.31,SE,135,3.2,-999.0,64,-99.99,,,0.00,Acu-Link.com,2013-02-20 15:13:00,
2013-02-20 09:29:00,13.1,2.9,30.31,ENE,67,3.2,-999.0,63,-99.99,,,0.00,Acu-Link.com,2013-02-20 15:29:00,
2013-02-20 09:44:00,13.1,3.2,30.31,ESE,112,3.2,-999.0,64,-99.99,,,0.00,Acu-Link.com,2013-02-20 15:44:00,
2013-02-20 09:59:00,14.4,3.8,30.31,East,90,4.2,-999.0,62,-99.99,,,0.00,Acu-Link.com,2013-02-20 15:59:00,
2013-02-20 10:14:00,14.7,4.1,30.32,East,90,4.7,-999.0,62,-99.99,,,0.00,Acu-Link.com,2013-02-20 16:14:00,
2013-02-20 10:30:00,15.8,4.0,30.32,South,180,2.7,-999.0,59,-99.99,,,0.00,Acu-Link.com,2013-02-20 16:30:00,
2013-02-20 10:45:00,15.8,4.0,30.32,SSE,157,3.2,-999.0,59,-99.99,,,0.00,Acu-Link.com,2013-02-20 16:45:00,
2013-02-20 11:00:00,16.0,4.6,30.32,SE,135,1.7,-999.0,60,-99.99,,,0.00,Acu-Link.com,2013-02-20 17:00:00,
2013-02-20 11:15:00,15.8,4.4,30.33,ESE,112,4.7,-999.0,60,-99.99,,,0.00,Acu-Link.com,2013-02-20 17:15:00,
2013-02-20 11:30:00,17.1,6.0,30.33,South,180,2.7,-999.0,61,-99.99,,,0.00,Acu-Link.com,2013-02-20 17:30:00,
2013-02-20 11:46:00,18.5,6.6,30.32,SSE,157,4.2,-999.0,59,-99.99,,,0.00,Acu-Link.com,2013-02-20 17:46:00,
2013-02-20 12:01:00,19.6,7.3,30.30,East,90,3.2,-999.0,58,-99.99,,,0.00,Acu-Link.com,2013-02-20 18:01:00,
2013-02-20 12:16:00,19.6,7.3,30.29,West,270,2.2,-999.0,58,-99.99,,,0.00,Acu-Link.com,2013-02-20 18:16:00,
2013-02-20 12:31:00,20.1,7.3,30.29,East,90,2.7,-999.0,57,-99.99,,,0.00,Acu-Link.com,2013-02-20 18:31:00,
2013-02-20 12:46:00,21.0,8.2,30.26,SSE,157,2.7,-999.0,57,-99.99,,,0.00,Acu-Link.com,2013-02-20 18:46:00,
2013-02-20 13:02:00,21.0,7.4,30.23,East,90,4.7,-999.0,55,-99.99,,,0.00,Acu-Link.com,2013-02-20 19:02:00,
2013-02-20 13:18:00,21.0,7.8,30.24,East,90,4.2,-999.0,56,-99.99,,,0.00,Acu-Link.com,2013-02-20 19:18:00,
2013-02-20 13:33:00,21.6,8.0,30.23,East,90,6.8,-999.0,55,-99.99,,,0.00,Acu-Link.com,2013-02-20 19:33:00,
2013-02-20 13:48:00,23.5,9.7,30.22,NNE,22,2.2,-999.0,55,-99.99,,,0.00,Acu-Link.com,2013-02-20 19:48:00,
2013-02-20 14:03:00,22.8,8.7,30.22,ESE,112,4.7,-999.0,54,-99.99,,,0.00,Acu-Link.com,2013-02-20 20:03:00,
2013-02-20 14:19:00,23.0,8.5,30.21,ESE,112,3.2,-999.0,53,-99.99,,,0.00,Acu-Link.com,2013-02-20 20:19:00,
2013-02-20 14:34:00,23.5,8.5,30.21,NNE,22,4.2,-999.0,52,-99.99,,,0.00,Acu-Link.com,2013-02-20 20:34:00,
2013-02-20 14:49:00,22.5,8.0,30.20,ESE,112,6.8,-999.0,53,-99.99,,,0.00,Acu-Link.com,2013-02-20 20:49:00,
2013-02-20 15:04:00,22.3,8.2,30.20,ENE,67,3.7,-999.0,54,-99.99,,,0.00,Acu-Link.com,2013-02-20 21:04:00,
2013-02-20 15:19:00,22.1,8.0,30.19,East,90,4.2,-999.0,54,-99.99,,,0.00,Acu-Link.com,2013-02-20 21:19:00,
2013-02-20 15:35:00,21.7,7.7,30.19,NW,315,7.3,-999.0,54,-99.99,,,0.00,Acu-Link.com,2013-02-20 21:35:00,
2013-02-20 15:50:00,22.5,8.4,30.18,NNE,22,4.7,-999.0,54,-99.99,,,0.00,Acu-Link.com,2013-02-20 21:50:00,
2013-02-20 16:05:00,22.3,8.2,30.18,East,90,7.3,-999.0,54,-99.99,,,0.00,Acu-Link.com,2013-02-20 22:05:00,
2013-02-20 16:21:00,22.6,8.5,30.18,SSE,157,3.7,-999.0,54,-99.99,,,0.00,Acu-Link.com,2013-02-20 22:21:00,
2013-02-20 16:36:00,22.5,8.4,30.17,SE,135,2.7,-999.0,54,-99.99,,,0.00,Acu-Link.com,2013-02-20 22:36:00,
2013-02-20 16:52:00,22.5,8.8,30.16,SE,135,4.7,-999.0,55,-99.99,,,0.00,Acu-Link.com,2013-02-20 22:52:00,
2013-02-20 17:07:00,22.6,8.5,30.16,East,90,4.7,-999.0,54,-99.99,,,0.00,Acu-Link.com,2013-02-20 23:07:00,
2013-02-20 17:25:00,23.0,9.3,30.16,SE,135,5.3,-999.0,55,-99.99,,,0.00,Acu-Link.com,2013-02-20 23:25:00,
2013-02-20 17:40:00,23.0,10.1,30.16,West,270,3.7,-999.0,57,-99.99,,,0.00,Acu-Link.com,2013-02-20 23:40:00,
2013-02-20 17:55:00,22.6,11.6,30.15,ESE,112,5.3,-999.0,62,-99.99,,,0.00,Acu-Link.com,2013-02-20 23:55:00,
2013-02-20 18:11:00,22.1,12.8,30.15,SE,135,3.7,-999.0,67,-99.99,,,0.00,Acu-Link.com,2013-02-21 00:11:00,
2013-02-20 18:26:00,21.7,13.8,30.16,ENE,67,3.7,-999.0,71,-99.99,,,0.00,Acu-Link.com,2013-02-21 00:26:00,
2013-02-20 18:41:00,21.7,12.8,30.15,ESE,112,6.3,-999.0,68,-99.99,,,0.00,Acu-Link.com,2013-02-21 00:41:00,
2013-02-20 18:56:00,21.6,13.4,30.16,East,90,3.2,-999.0,70,-99.99,,,0.00,Acu-Link.com,2013-02-21 00:56:00,
2013-02-20 19:12:00,21.6,13.7,30.14,NE,45,4.2,-999.0,71,-99.99,,,0.00,Acu-Link.com,2013-02-21 01:12:00,
2013-02-20 19:27:00,22.1,12.2,30.12,NE,45,5.3,-999.0,65,-99.99,,,0.00,Acu-Link.com,2013-02-21 01:27:00,
2013-02-20 19:43:00,22.8,10.3,30.13,SSE,157,3.7,-999.0,58,-99.99,,,0.00,Acu-Link.com,2013-02-21 01:43:00,
2013-02-20 20:06:00,23.5,9.3,30.13,SSE,157,3.7,-999.0,54,-99.99,,,0.00,Acu-Link.com,2013-02-21 02:06:00,
2013-02-20 20:46:00,24.1,9.5,30.13,ESE,112,3.2,-999.0,53,-99.99,,,0.00,Acu-Link.com,2013-02-21 02:46:00,
2013-02-20 22:23:00,24.3,8.4,30.15,East,90,2.7,-999.0,50,-99.99,,,0.00,Acu-Link.com,2013-02-21 04:23:00,
2013-02-20 23:21:00,23.7,8.3,30.15,East,90,3.2,-999.0,51,-99.99,,,0.00,Acu-Link.com,2013-02-21 05:21:00,
2013-02-20 23:43:00,23.7,8.7,30.16,ESE,112,6.8,-999.0,52,-99.99,,,0.00,Acu-Link.com,2013-02-21 05:43:00,
2013-02-20 23:58:00,23.7,9.1,30.17,SSE,157,2.7,-999.0,53,-99.99,,,0.00,Acu-Link.com,2013-02-21 05:58:00,